Regional Weather Roundup
Issued by NWS Goodland, KS

Home | Current Version | Previous Version | Text Only | Print | Product List | Glossary On
Versions: 1 2 3 4 5 6 7 8 9 10 11 12 13 14 15 16 17 18 19 20 21 22 23 24 25 26 27 28 29 30 31 32 33 34 35 36 37 38 39 40 41 42 43 44 45 46 47 48 49 50
000
ASUS43 KGLD 281508
RWRGLD

GOODLAND FORECAST AREA HOURLY WEATHER ROUNDUP
NATIONAL WEATHER SERVICE GOODLAND KS
900 AM MDT THU AUG 28 2014

...OFFICIAL OBSERVATIONS...

CITY           SKY/WX    TMP DP  RH WIND       PRES   REMARKS
GOODLAND KS    SUNNY     69  60  73 NW12      30.03F
HILL CITY KS   CLOUDY    66  64  93 NW14      29.95R
IMPERIAL NEB   PTSUNNY   67  62  84 NW8       30.00S
MCCOOK NEB     SUNNY     70  63  78 NW8       29.97F
AKRON CO       SUNNY     62  54  74 NW13      30.10S
BURLINGTON CO  SUNNY     67  58  72 NW13      30.06F
LIMON CO       MOSUNNY   64  50  60 N8        30.14S
$$

...UNOFFICIAL OBSERVATIONS...

CITY           SKY/WX    TMP DP  RH WIND       PRES   REMARKS
COLBY KS       MOSUNNY   70  64  83 NW9       30.02S
GOVE KS          N/A     66  32  28 CALM        N/A
NORTON KS      CLOUDY    66  63  88 CALM      29.95
SHARON SPRINGS   N/A     68  62  80 NW10        N/A
WAKEENEY KS      N/A     74  70  89 MISG        N/A
KIT CARSON CO    N/A     69  58  67 MISG        N/A
YUMA CO          N/A     61  57  85 NW18        N/A
$$



USA.gov is the U.S. government's official web portal to all federal, state and local government web resources and services.